Location: Bu?ayrat N??ir
(22.8333°N, 32.5000°E)
Time: 15:14:35
(UTC+00:00)

Daily predictions for brighter satellites

Satellite Brightness Start Highest point End
(mag) Time Altitude Azimuth Time Altitude Azimuth Time Altitude Azimuth
Palapa 6 Rocket 4.4 16:07:31 10° W 16:14:24 85° S 16:22:20 10° E
USA 234 3.4 16:11:34 10° NE 16:18:07 84° NW 16:24:40 10° SW
COSMO-SKYMED 1 4.5 16:14:59 10° N 16:18:55 35° WNW 16:22:51 10° SW
Cosmos 1633 Rocket 3.4 16:14:37 10° S 16:19:00 73° W 16:23:25 10° N
Cosmos 2263 Rocket 2.3 16:14:18 10° N 16:19:44 53° ENE 16:25:08 10° SSE
Cosmos 1939 Rocket 4.0 16:17:24 10° S 16:21:07 46° W 16:24:48 10° NNW
H-2A R/B 2.6 16:16:11 10° SE 16:21:13 41° ENE 16:26:17 10° N
GPS 2-14 Rocket1 2.8 16:17:56 10° WSW 16:21:44 60° S 16:25:28 10° E
Cosmos 968 Rocket 4.4 16:17:52 10° NNE 16:22:22 28° ENE 16:26:51 10° SE
IRS-1C Rocket 4.2 16:19:34 10° SSE 16:24:41 55° ENE 16:29:49 10° N
Cosmos 2237 4.5 16:20:06 10° SSW 16:25:47 77° WNW 16:31:32 10° NNE
CZ-4 R/B 1.6 16:22:28 10° SSE 16:26:05 42° ENE 16:29:44 10° N
SeaSat 1 2.6 16:24:15 10° NNE 16:29:11 82° WNW 16:34:06 10° SSW
Cosmos 1437 3.2 16:26:45 10° NNW 16:29:35 55° W 16:32:23 10° S
Okean 1 4.0 16:27:21 10° NNE 16:31:00 33° E 16:34:39 10° SSE
Cosmos 1515 4.3 16:28:09 10° NNE 16:31:37 33° E 16:35:03 10° SSE
Cosmos 1707 Rocket 3.6 16:28:43 10° N 16:33:04 85° W 16:37:23 10° S
CZ-2C R/B 2.7 16:28:02 10° NNE 16:33:18 55° E 16:38:27 10° S
NOSS 3-2 (A) 4.4 16:30:47 10° SSE 16:34:21 18° ESE 16:37:12 13° ENE
CREW DRAGON DEMO-1 DEB 3.0 16:37:26 10° SSW 16:40:07 42° SE 16:41:45 19° ENE
CSL-04 Rocket 4.4 16:36:33 10° SE 16:41:25 32° ENE 16:46:17 10° N
ATLAS CENTAUR R/B 3.5 16:39:26 10° WSW 16:42:25 23° WNW 16:45:22 10° N
SAR-Lupe-4 4.1 16:38:55 10° N 16:42:27 63° WNW 16:45:58 10° SSW
Okean-O 2.6 16:39:52 10° SSE 16:44:12 60° ENE 16:48:34 10° N
SWIFT 2.5 16:41:10 10° WSW 16:45:18 58° S 16:47:58 20° E
Cosmos 2341 Rocket 4.1 16:39:41 10° SSE 16:45:49 53° E 16:51:54 10° NNE
Meteor 1-5 Rocket 4.1 16:44:07 10° S 16:49:16 57° E 16:54:32 10° NNE
Cosmos 2333 4.1 16:44:13 10° S 16:49:46 71° ESE 16:55:23 10° NNE
Cosmos 1666 2.9 16:49:08 10° SSE 16:52:38 41° E 16:56:09 10° NNE
Cosmos 1844 Rocket 4.1 16:51:02 10° NNE 16:54:25 18° ENE 16:54:25 18° ENE
Cosmos 44 Rocket 4.3 16:50:36 10° N 16:55:02 28° ENE 16:56:37 24° E
Cosmos 2360 Rocket 3.3 16:50:48 10° SW 16:56:09 46° WNW 17:01:34 10° N
HJ-1C 3.3 16:53:18 10° SSE 16:56:34 58° E 16:59:49 10° N
ERS-2 4.2 16:56:11 10° NNW 16:59:24 30° WNW 17:02:36 10° SW
CENTAUR R/B 3.6 16:57:16 10° SSE 16:59:23 17° SE 16:59:23 17° SE
FUSE 4.0 16:57:19 10° W 17:02:43 69° N 17:05:28 29° ENE
Cosmos 2218 Rocket 4.2 16:58:27 10° SSE 17:04:29 46° E 17:10:33 10° NNE
DELTA 2 R/B (1) 4.4 17:00:10 10° WSW 17:05:29 46° NNW 17:09:39 16° NE
Cosmos 2333 Rocket 2.1 17:00:20 10° SSW 17:05:58 78° ESE 17:11:39 10° NNE
BREEZE-M DEB (TANK) 4.4 16:57:17 10° SSW 17:09:46 37° SE 17:11:35 30° ESE
SL-08 RB Rocket 3.6 17:07:49 10° SSE 17:12:14 64° ENE 17:16:42 10° N
Meteor 1-19 Rocket 4.4 17:07:57 10° N 17:13:47 78° W 17:19:24 10° S
Meteor 2-4 Rocket 3.8 17:12:54 10° N 17:18:45 62° E 17:24:35 10° SSE
Cosmos 864 Rocket 4.4 17:15:29 10° S 17:21:30 62° E 17:27:33 10° NNE
Cosmos 1703 Rocket 4.2 17:19:16 10° N 17:22:11 37° NNE 17:22:11 37° NNE
SME Rocket 3.3 17:20:43 10° NNE 17:26:46 80° ESE 17:30:59 10° S
Cosmos 1959 Rocket 4.3 17:20:51 10° S 17:26:56 73° E 17:33:00 10° N
Lacrosse 4 Rocket 2.6 17:30:07 10° SW 17:34:11 43° WNW 17:38:01 12° N
Hubble Space Telescope 0.8 17:30:59 10° WSW 17:34:47 73° WNW 17:34:47 73° WNW
COSMOS 2428 2.8 17:30:21 10° SSW 17:36:01 78° WNW 17:41:42 10° NNE
Helios 1A Rocket 4.0 17:32:43 10° S 17:36:36 44° W 17:40:28 10° NNW
Cosmos 2242 Rocket 3.6 17:36:47 10° N 17:41:14 75° W 17:41:42 67° SSW
GPS 2-12 Rocket1 3.7 17:36:39 10° WSW 17:40:48 46° S 17:40:48 46° S
Meteor 1-11 Rocket 3.8 17:36:36 10° S 17:42:24 78° W 17:48:06 10° N
Cosmos 2219 Rocket 2.9 17:37:57 10° SW 17:43:21 51° WNW 17:48:47 10° N
MetOp-A 4.1 17:45:36 67° NNE 17:45:36 67° NNE 17:50:23 10° N
CZ-3 Stage 3 4.5 17:43:05 10° NW 17:44:01 14° NW 17:44:01 14° NW
USA 238 DEB 3.4 17:45:46 10° SSW 17:52:11 84° ESE 17:53:23 62° NE
USA 238 3.4 17:45:50 10° SSW 17:52:16 84° ESE 17:53:24 63° NE
Delta 7925 Rocket 4.1 17:53:26 10° WNW 17:56:48 44° NW 17:56:48 44° NW
Palapa 6 Rocket 4.2 17:56:24 10° W 18:04:01 87° S 18:04:38 78° ESE
Delta 2 Rocket 4.0 18:00:04 10° W 18:05:40 63° NW 18:05:40 63° NW
CZ-3A R/B 3.1 17:57:52 10° W 18:09:39 62° NW 18:09:39 62° NW
Centaur D-1AR AC-48 3.9 18:10:27 10° WSW 18:11:57 19° SW 18:11:57 19° SW
NOSS 3-2 (A) 4.5 18:19:46 10° SW 18:24:38 35° WNW 18:24:45 35° NW
Cosmos 1844 Rocket 4.5 18:33:26 10° NW 18:36:10 26° NW 18:36:10 26° NW
